| time (UTC) | temp F | wind direction | speed MPH | gust MPH | rain 1hr in | rain 24hr in | rain mn in | humidity % | barometer mb |
| 20260508025826 | 89 | 100 | 4.0 | 9.0 | 0.00 | 0.00 | 0.00 | 69 | 1010.5 |
| 20260508025323 | 90 | 25 | 1.0 | 4.0 | 0.00 | 0.00 | 0.00 | 68 | 1010.5 |
| 20260508024820 | 89 | 200 | 7.0 | 9.0 | 0.00 | 0.00 | 0.00 | 69 | 1010.6 |
| 20260508024316 | 89 | 102 | 8.0 | 10.0 | 0.00 | 0.00 | 0.00 | 71 | 1010.5 |
| 20260508023813 | 89 | 137 | 6.0 | 10.0 | 0.00 | 0.00 | 0.00 | 69 | 1010.7 |
| 20260508023310 | 89 | 90 | 8.0 | 11.0 | 0.00 | 0.00 | 0.00 | 70 | 1010.8 |
| 20260508022807 | 89 | 90 | 2.0 | 10.0 | 0.00 | 0.00 | 0.00 | 70 | 1010.7 |
| 20260508022306 | 90 | 90 | 7.0 | 11.0 | 0.00 | 0.00 | 0.00 | 67 | 1010.5 |
| 20260508021800 | 89 | 344 | 1.0 | 9.0 | 0.00 | 0.00 | 0.00 | 69 | 1010.5 |
| 20260508021255 | 89 | 123 | 2.0 | 4.0 | 0.00 | 0.00 | 0.00 | 70 | 1010.4 |
| 20260508020752 | 88 | 76 | 1.0 | 6.0 | 0.00 | 0.00 | 0.00 | 71 | 1010.6 |
| 20260508020250 | 88 | 94 | 4.0 | 9.0 | 0.00 | 0.00 | 0.00 | 72 | 1010.5 |
| 20260508015746 | 88 | 35 | 2.0 | 8.0 | 0.00 | 0.00 | 0.00 | 71 | 1010.5 |
| 20260508015244 | 87 | 104 | 8.0 | 9.0 | 0.00 | 0.00 | 0.00 | 72 | 1010.5 |
| 20260508014741 | 88 | 139 | 3.0 | 8.0 | 0.00 | 0.00 | 0.00 | 72 | 1010.7 |
| 20260508014237 | 87 | 100 | 5.0 | 7.0 | 0.00 | 0.00 | 0.00 | 73 | 1010.6 |
| 20260508013733 | 87 | 45 | 4.0 | 9.0 | 0.00 | 0.00 | 0.00 | 75 | 1010.5 |
| 20260508013230 | 87 | 21 | 5.0 | 8.0 | 0.00 | 0.00 | 0.00 | 74 | 1010.4 |
| 20260508012728 | 86 | 52 | 5.0 | 8.0 | 0.00 | 0.00 | 0.00 | 75 | 1010.5 |
| 20260508012224 | 86 | 90 | 4.0 | 7.0 | 0.00 | 0.00 | 0.00 | 76 | 1010.3 |
| 20260508011722 | 87 | 104 | 5.0 | 8.0 | 0.00 | 0.00 | 0.00 | 76 | 1010.2 |
| 20260508011220 | 87 | 68 | 2.0 | 6.0 | 0.00 | 0.00 | 0.00 | 76 | 1010.4 |
| 20260508010716 | 87 | 138 | 2.0 | 6.0 | 0.00 | 0.00 | 0.00 | 75 | 1010.2 |
| 20260508010214 | 86 | 204 | 4.0 | 11.0 | 0.00 | 0.00 | 0.00 | 76 | 1010.3 |
| 20260508005711 | 87 | 0 | 2.0 | 4.0 | 0.00 | 0.00 | 0.00 | 75 | 1010.2 |
| 20260508005208 | 86 | 102 | 3.0 | 7.0 | 0.00 | 0.00 | 0.00 | 77 | 1010.2 |
| 20260508004703 | 86 | 132 | 6.0 | 9.0 | 0.00 | 0.00 | 0.00 | 77 | 1009.9 |
| 20260508004200 | 86 | 68 | 4.0 | 8.0 | 0.00 | 0.00 | 0.00 | 76 | 1010.1 |
| 20260508003657 | 86 | 116 | 2.0 | 7.0 | 0.00 | 0.00 | 0.00 | 77 | 1010.1 |
| 20260508003154 | 86 | 58 | 0.0 | 4.0 | 0.00 | 0.00 | 0.00 | 77 | 1010.0 |
| 20260508002650 | 85 | 42 | 1.0 | 7.0 | 0.00 | 0.00 | 0.00 | 77 | 1009.9 |
| 20260508002148 | 86 | 150 | 6.0 | 8.0 | 0.00 | 0.00 | 0.00 | 77 | 1010.0 |
| 20260508001643 | 85 | 114 | 6.0 | 11.0 | 0.00 | 0.00 | 0.00 | 77 | 1009.8 |
| 20260508001139 | 84 | 64 | 4.0 | 6.0 | 0.00 | 0.00 | 0.00 | 78 | 1010.0 |
| 20260508000635 | 85 | 82 | 1.0 | 4.0 | 0.00 | 0.00 | 0.00 | 81 | 1009.5 |
| 20260508000133 | 84 | 45 | 2.0 | 6.0 | 0.00 | 0.00 | 0.00 | 81 | 1009.6 |
| 20260507235630 | 84 | 161 | 3.0 | 7.0 | 0.00 | 0.00 | 0.00 | 83 | 1009.4 |
| 20260507235127 | 84 | 152 | 6.0 | 11.0 | 0.00 | 0.00 | 0.00 | 83 | 1009.6 |
| 20260507234623 | 84 | 67 | 6.0 | 8.0 | 0.00 | 0.00 | 0.00 | 83 | 1009.5 |
| 20260507234120 | 84 | 65 | 2.0 | 6.0 | 0.00 | 0.00 | 0.00 | 84 | 1009.5 |
| 20260507233617 | 84 | 85 | 7.0 | 8.0 | 0.00 | 0.00 | 0.00 | 84 | 1009.5 |
| 20260507233116 | 84 | 103 | 9.0 | 11.0 | 0.00 | 0.00 | 0.00 | 84 | 1009.3 |
| 20260507232612 | 84 | 124 | 9.0 | 11.0 | 0.00 | 0.00 | 0.00 | 84 | 1009.2 |
| 20260507232109 | 84 | 91 | 5.0 | 7.0 | 0.00 | 0.00 | 0.00 | 84 | 1009.3 |
| 20260507231605 | 84 | 119 | 2.0 | 7.0 | 0.00 | 0.00 | 0.00 | 84 | 1009.2 |
| 20260507231102 | 84 | 89 | 3.0 | 4.0 | 0.00 | 0.00 | 0.00 | 84 | 1009.1 |
| 20260507230559 | 84 | 142 | 1.0 | 7.0 | 0.00 | 0.00 | 0.00 | 84 | 1009.0 |
| 20260507230055 | 84 | 120 | 4.0 | 7.0 | 0.00 | 0.00 | 0.00 | 84 | 1009.1 |
| 20260507225550 | 84 | 150 | 3.0 | 7.0 | 0.00 | 0.00 | 0.00 | 84 | 1009.0 |
| 20260507225047 | 84 | 100 | 4.0 | 7.0 | 0.00 | 0.00 | 0.00 | 84 | 1009.0 |
| 20260507224543 | 83 | 105 | 3.0 | 7.0 | 0.00 | 0.00 | 0.00 | 84 | 1008.7 |
| 20260507224040 | 83 | 75 | 2.0 | 6.0 | 0.00 | 0.00 | 0.00 | 84 | 1008.7 |
| 20260507223536 | 83 | 135 | 2.0 | 3.0 | 0.00 | 0.00 | 0.00 | 84 | 1008.7 |
| 20260507223033 | 83 | 126 | 4.0 | 6.0 | 0.00 | 0.00 | 0.00 | 84 | 1008.8 |
| 20260507222530 | 83 | 97 | 3.0 | 4.0 | 0.00 | 0.00 | 0.00 | 84 | 1008.9 |
| 20260507222026 | 83 | 117 | 4.0 | 6.0 | 0.00 | 0.00 | 0.00 | 85 | 1008.9 |
| 20260507221523 | 83 | 75 | 1.0 | 2.0 | 0.00 | 0.00 | 0.00 | 85 | 1008.9 |
| 20260507221020 | 83 | 105 | 4.0 | 4.0 | 0.00 | 0.00 | 0.00 | 85 | 1008.9 |
| 20260507220517 | 83 | 69 | 5.0 | 10.0 | 0.00 | 0.00 | 0.00 | 85 | 1008.8 |
| 20260507220015 | 83 | 107 | 6.0 | 8.0 | 0.00 | 0.00 | 0.00 | 85 | 1008.7 |
| 20260507215510 | 83 | 90 | 4.0 | 10.0 | 0.00 | 0.00 | 0.00 | 84 | 1008.9 |
| 20260507215009 | 84 | 106 | 2.0 | 9.0 | 0.00 | 0.00 | 0.00 | 84 | 1008.8 |
| 20260507214505 | 84 | 120 | 4.0 | 4.0 | 0.00 | 0.00 | 0.00 | 84 | 1008.8 |
| 20260507214000 | 84 | 110 | 3.0 | 7.0 | 0.00 | 0.00 | 0.00 | 84 | 1008.9 |
| 20260507213458 | 84 | 125 | 5.0 | 8.0 | 0.00 | 0.00 | 0.00 | 84 | 1008.8 |
| 20260507212954 | 84 | 71 | 3.0 | 4.0 | 0.00 | 0.00 | 0.00 | 84 | 1008.8 |
| 20260507212450 | 84 | 29 | 0.0 | 4.0 | 0.00 | 0.00 | 0.00 | 84 | 1008.6 |
| 20260507211948 | 84 | 95 | 5.0 | 8.0 | 0.00 | 0.00 | 0.00 | 84 | 1008.7 |
| 20260507211444 | 84 | 50 | 1.0 | 6.0 | 0.00 | 0.00 | 0.00 | 84 | 1008.7 |
| 20260507210941 | 84 | 94 | 2.0 | 6.0 | 0.00 | 0.00 | 0.00 | 84 | 1008.7 |
| 20260507210438 | 84 | 118 | 4.0 | 6.0 | 0.00 | 0.00 | 0.00 | 84 | 1008.7 |
| 20260507205934 | 84 | 105 | 5.0 | 6.0 | 0.00 | 0.00 | 0.00 | 84 | 1008.6 |
| 20260507205432 | 84 | 102 | 0.0 | 4.0 | 0.00 | 0.00 | 0.00 | 84 | 1008.6 |
| 20260507204928 | 84 | 27 | 0.0 | 3.0 | 0.00 | 0.00 | 0.00 | 84 | 1008.4 |
| 20260507204424 | 84 | 32 | 1.0 | 3.0 | 0.00 | 0.00 | 0.00 | 84 | 1008.6 |
| 20260507203922 | 84 | 74 | 4.0 | 4.0 | 0.00 | 0.00 | 0.00 | 84 | 1008.4 |
| 20260507203420 | 84 | 21 | 0.0 | 2.0 | 0.00 | 0.00 | 0.00 | 84 | 1008.3 |
| 20260507202915 | 84 | 31 | 3.0 | 4.0 | 0.00 | 0.00 | 0.00 | 84 | 1008.3 |
| 20260507202413 | 84 | 134 | 2.0 | 7.0 | 0.00 | 0.00 | 0.00 | 84 | 1008.1 |
| 20260507201908 | 84 | 48 | 2.0 | 6.0 | 0.00 | 0.00 | 0.00 | 84 | 1008.1 |
| 20260507201403 | 84 | 45 | 2.0 | 4.0 | 0.00 | 0.00 | 0.00 | 84 | 1008.2 |
| 20260507200900 | 84 | 96 | 1.0 | 3.0 | 0.00 | 0.00 | 0.00 | 84 | 1007.8 |
| 20260507200356 | 84 | 67 | 1.0 | 4.0 | 0.00 | 0.00 | 0.00 | 84 | 1007.8 |
| 20260507195852 | 84 | 78 | 6.0 | 9.0 | 0.00 | 0.00 | 0.00 | 85 | 1007.7 |
| 20260507195350 | 84 | 72 | 4.0 | 8.0 | 0.00 | 0.00 | 0.00 | 84 | 1008.0 |
| 20260507194847 | 84 | 63 | 4.0 | 7.0 | 0.00 | 0.00 | 0.00 | 84 | 1008.0 |
| 20260507194343 | 84 | 85 | 3.0 | 4.0 | 0.00 | 0.00 | 0.00 | 84 | 1008.0 |
| 20260507193839 | 84 | 92 | 4.0 | 7.0 | 0.00 | 0.00 | 0.00 | 84 | 1008.0 |
| 20260507193337 | 84 | 186 | 3.0 | 4.0 | 0.00 | 0.00 | 0.00 | 83 | 1007.9 |
| 20260507192833 | 84 | 76 | 6.0 | 8.0 | 0.00 | 0.00 | 0.00 | 83 | 1008.2 |
| 20260507192324 | 84 | 62 | 4.0 | 7.0 | 0.00 | 0.00 | 0.00 | 83 | 1007.8 |
| 20260507191820 | 84 | 154 | 4.0 | 6.0 | 0.00 | 0.00 | 0.00 | 83 | 1008.0 |
| 20260507191317 | 84 | 130 | 2.0 | 6.0 | 0.00 | 0.00 | 0.00 | 83 | 1008.1 |
| 20260507190814 | 84 | 89 | 4.0 | 6.0 | 0.00 | 0.00 | 0.00 | 83 | 1008.1 |
| 20260507190312 | 84 | 85 | 2.0 | 6.0 | 0.00 | 0.00 | 0.00 | 83 | 1008.2 |
| 20260507185810 | 84 | 102 | 3.0 | 9.0 | 0.00 | 0.00 | 0.00 | 83 | 1008.1 |
| 20260507185306 | 85 | 114 | 6.0 | 7.0 | 0.00 | 0.00 | 0.00 | 83 | 1008.1 |
| 20260507184804 | 84 | 53 | 4.0 | 8.0 | 0.00 | 0.00 | 0.00 | 83 | 1008.5 |
| 20260507184303 | 84 | 197 | 3.0 | 7.0 | 0.00 | 0.00 | 0.00 | 83 | 1008.4 |
| 20260507183759 | 85 | 97 | 7.0 | 8.0 | 0.00 | 0.00 | 0.00 | 83 | 1008.7 |
| 20260507183256 | 85 | 128 | 6.0 | 7.0 | 0.00 | 0.00 | 0.00 | 83 | 1008.7 |
| 20260507182754 | 85 | 99 | 2.0 | 6.0 | 0.00 | 0.00 | 0.00 | 83 | 1008.8 |
| 20260507182253 | 85 | 72 | 7.0 | 8.0 | 0.00 | 0.00 | 0.00 | 83 | 1008.8 |
| 20260507181751 | 84 | 82 | 2.0 | 4.0 | 0.00 | 0.00 | 0.00 | 83 | 1008.6 |
| 20260507181247 | 85 | 75 | 3.0 | 9.0 | 0.00 | 0.00 | 0.00 | 83 | 1008.7 |
| 20260507180743 | 84 | 55 | 1.0 | 4.0 | 0.00 | 0.00 | 0.00 | 83 | 1008.9 |
| 20260507180241 | 85 | 51 | 3.0 | 7.0 | 0.00 | 0.00 | 0.00 | 83 | 1008.9 |
| 20260507175736 | 85 | 133 | 8.0 | 9.0 | 0.00 | 0.00 | 0.00 | 82 | 1008.7 |
| 20260507175233 | 85 | 161 | 4.0 | 9.0 | 0.00 | 0.00 | 0.00 | 82 | 1008.8 |
| 20260507174731 | 85 | 135 | 4.0 | 10.0 | 0.00 | 0.00 | 0.00 | 82 | 1008.8 |
| 20260507174228 | 85 | 118 | 4.0 | 8.0 | 0.00 | 0.00 | 0.00 | 82 | 1008.8 |
| 20260507173726 | 85 | 96 | 4.0 | 7.0 | 0.00 | 0.00 | 0.00 | 82 | 1008.9 |
| 20260507173222 | 85 | 96 | 3.0 | 6.0 | 0.00 | 0.00 | 0.00 | 82 | 1009.0 |
| 20260507172719 | 85 | 124 | 5.0 | 9.0 | 0.00 | 0.00 | 0.00 | 82 | 1009.1 |
| 20260507172216 | 85 | 117 | 2.0 | 3.0 | 0.00 | 0.00 | 0.00 | 82 | 1009.0 |
| 20260507171711 | 85 | 115 | 1.0 | 6.0 | 0.00 | 0.00 | 0.00 | 82 | 1009.2 |
| 20260507171208 | 85 | 77 | 2.0 | 3.0 | 0.00 | 0.00 | 0.00 | 82 | 1009.1 |
| 20260507170704 | 85 | 94 | 3.0 | 10.0 | 0.00 | 0.00 | 0.00 | 82 | 1009.2 |
| 20260507170202 | 85 | 80 | 6.0 | 9.0 | 0.00 | 0.00 | 0.00 | 82 | 1009.1 |
| 20260507165657 | 85 | 44 | 2.0 | 6.0 | 0.00 | 0.00 | 0.00 | 82 | 1009.4 |
| 20260507165148 | 85 | 106 | 5.0 | 8.0 | 0.00 | 0.00 | 0.00 | 81 | 1009.3 |
| 20260507164644 | 85 | 70 | 6.0 | 9.0 | 0.00 | 0.00 | 0.00 | 82 | 1009.4 |
| 20260507164141 | 85 | 90 | 5.0 | 6.0 | 0.00 | 0.00 | 0.00 | 82 | 1009.5 |
| 20260507163633 | 85 | 87 | 8.0 | 10.0 | 0.00 | 0.00 | 0.00 | 82 | 1009.5 |
| 20260507163131 | 85 | 57 | 6.0 | 9.0 | 0.00 | 0.00 | 0.00 | 83 | 1009.5 |
| 20260507162626 | 85 | 85 | 7.0 | 10.0 | 0.00 | 0.00 | 0.00 | 83 | 1009.5 |
| 20260507162123 | 85 | 90 | 4.0 | 6.0 | 0.00 | 0.00 | 0.00 | 82 | 1009.4 |
| 20260507161619 | 85 | 96 | 3.0 | 9.0 | 0.00 | 0.00 | 0.00 | 82 | 1009.7 |
| 20260507161116 | 85 | 75 | 4.0 | 9.0 | 0.00 | 0.00 | 0.00 | 82 | 1009.4 |
| 20260507160612 | 85 | 91 | 7.0 | 9.0 | 0.00 | 0.00 | 0.00 | 83 | 1009.5 |
| 20260507160109 | 85 | 128 | 5.0 | 8.0 | 0.00 | 0.00 | 0.00 | 83 | 1009.8 |
| 20260507155603 | 85 | 174 | 2.0 | 9.0 | 0.00 | 0.00 | 0.00 | 83 | 1009.7 |
| 20260507155055 | 86 | 77 | 9.0 | 10.0 | 0.00 | 0.00 | 0.00 | 83 | 1009.7 |
| 20260507154552 | 85 | 100 | 5.0 | 8.0 | 0.00 | 0.00 | 0.00 | 83 | 1009.6 |
| 20260507154049 | 85 | 121 | 5.0 | 8.0 | 0.00 | 0.00 | 0.00 | 83 | 1009.7 |
| 20260507153546 | 85 | 99 | 2.0 | 8.0 | 0.00 | 0.00 | 0.00 | 82 | 1009.7 |
| 20260507153042 | 85 | 69 | 6.0 | 9.0 | 0.00 | 0.00 | 0.00 | 82 | 1009.5 |
| 20260507152538 | 85 | 93 | 3.0 | 6.0 | 0.00 | 0.00 | 0.00 | 82 | 1009.3 |
| 20260507152035 | 85 | 114 | 4.0 | 7.0 | 0.00 | 0.00 | 0.00 | 82 | 1009.3 |
| 20260507151530 | 86 | 116 | 3.0 | 10.0 | 0.00 | 0.00 | 0.00 | 82 | 1009.3 |
| 20260507151027 | 86 | 127 | 6.0 | 8.0 | 0.00 | 0.00 | 0.00 | 82 | 1009.2 |
| 20260507150525 | 86 | 140 | 7.0 | 9.0 | 0.00 | 0.00 | 0.00 | 82 | 1009.5 |
| 20260507150021 | 85 | 116 | 5.0 | 7.0 | 0.00 | 0.00 | 0.00 | 82 | 1009.2 |
| 20260507145516 | 86 | 85 | 9.0 | 11.0 | 0.00 | 0.00 | 0.00 | 82 | 1009.2 |
| 20260507145015 | 86 | 47 | 2.0 | 8.0 | 0.00 | 0.00 | 0.00 | 81 | 1009.1 |
| 20260507144511 | 86 | 89 | 7.0 | 9.0 | 0.00 | 0.00 | 0.00 | 81 | 1008.9 |
| 20260507144008 | 86 | 102 | 7.0 | 9.0 | 0.00 | 0.00 | 0.00 | 81 | 1009.1 |
| 20260507143506 | 86 | 75 | 3.0 | 6.0 | 0.00 | 0.00 | 0.00 | 81 | 1008.9 |
| 20260507143003 | 86 | 99 | 4.0 | 9.0 | 0.00 | 0.00 | 0.00 | 81 | 1009.1 |
| 20260507142458 | 86 | 67 | 5.0 | 11.0 | 0.00 | 0.00 | 0.00 | 81 | 1008.7 |
| 20260507141955 | 86 | 72 | 8.0 | 11.0 | 0.00 | 0.00 | 0.00 | 80 | 1008.7 |
| 20260507141450 | 86 | 81 | 3.0 | 10.0 | 0.00 | 0.00 | 0.00 | 80 | 1008.8 |
| 20260507140947 | 86 | 91 | 4.0 | 8.0 | 0.00 | 0.00 | 0.00 | 80 | 1008.7 |
| 20260507140444 | 86 | 107 | 5.0 | 9.0 | 0.00 | 0.00 | 0.00 | 79 | 1008.6 |
| 20260507135941 | 86 | 145 | 2.0 | 4.0 | 0.00 | 0.00 | 0.00 | 79 | 1008.5 |
| 20260507135433 | 86 | 113 | 6.0 | 10.0 | 0.00 | 0.00 | 0.00 | 79 | 1008.3 |
| 20260507134930 | 86 | 72 | 3.0 | 10.0 | 0.00 | 0.00 | 0.00 | 79 | 1008.1 |
| 20260507134426 | 86 | 134 | 2.0 | 10.0 | 0.00 | 0.00 | 0.00 | 79 | 1008.3 |
| 20260507133922 | 86 | 111 | 8.0 | 11.0 | 0.00 | 0.00 | 0.00 | 79 | 1008.2 |
| 20260507133418 | 86 | 98 | 9.0 | 13.0 | 0.00 | 0.00 | 0.00 | 79 | 1008.0 |
| 20260507132911 | 86 | 158 | 6.0 | 15.0 | 0.00 | 0.00 | 0.00 | 79 | 1008.0 |
| 20260507132407 | 86 | 109 | 3.0 | 6.0 | 0.00 | 0.00 | 0.00 | 79 | 1008.0 |
| 20260507131905 | 86 | 96 | 5.0 | 10.0 | 0.00 | 0.00 | 0.00 | 79 | 1007.9 |
| 20260507131401 | 86 | 131 | 9.0 | 14.0 | 0.00 | 0.00 | 0.00 | 79 | 1007.9 |
| 20260507130858 | 86 | 116 | 9.0 | 13.0 | 0.00 | 0.00 | 0.00 | 79 | 1007.8 |
| 20260507130354 | 86 | 79 | 9.0 | 21.0 | 0.00 | 0.00 | 0.00 | 79 | 1007.5 |
| 20260507125853 | 86 | 68 | 6.0 | 16.0 | 0.00 | 0.00 | 0.00 | 79 | 1007.7 |
| 20260507125350 | 86 | 119 | 8.0 | 9.0 | 0.00 | 0.00 | 0.00 | 79 | 1007.6 |
| 20260507124848 | 86 | 144 | 9.0 | 13.0 | 0.00 | 0.00 | 0.00 | 79 | 1007.6 |
| 20260507124344 | 86 | 112 | 10.0 | 14.0 | 0.00 | 0.00 | 0.00 | 79 | 1007.6 |
| 20260507123843 | 87 | 72 | 6.0 | 11.0 | 0.00 | 0.00 | 0.00 | 78 | 1007.4 |
| 20260507123339 | 87 | 105 | 6.0 | 16.0 | 0.00 | 0.00 | 0.00 | 78 | 1007.3 |
| 20260507122836 | 87 | 108 | 11.0 | 17.0 | 0.00 | 0.00 | 0.00 | 78 | 1007.4 |
| 20260507122331 | 87 | 123 | 5.0 | 14.0 | 0.00 | 0.00 | 0.00 | 78 | 1007.3 |
| 20260507121828 | 87 | 180 | 11.0 | 14.0 | 0.00 | 0.00 | 0.00 | 77 | 1007.2 |
| 20260507121323 | 87 | 159 | 9.0 | 15.0 | 0.00 | 0.00 | 0.00 | 76 | 1007.0 |
| 20260507120820 | 87 | 146 | 14.0 | 18.0 | 0.00 | 0.00 | 0.00 | 75 | 1007.1 |
| 20260507120316 | 87 | 116 | 11.0 | 15.0 | 0.00 | 0.00 | 0.00 | 74 | 1007.0 |
| 20260507115812 | 87 | 144 | 9.0 | 17.0 | 0.00 | 0.00 | 0.00 | 74 | 1006.8 |
| 20260507115308 | 87 | 123 | 8.0 | 11.0 | 0.00 | 0.00 | 0.00 | 75 | 1006.7 |
| 20260507114804 | 88 | 127 | 5.0 | 7.0 | 0.00 | 0.00 | 0.00 | 75 | 1006.6 |
| 20260507114302 | 88 | 127 | 5.0 | 11.0 | 0.00 | 0.00 | 0.00 | 76 | 1006.6 |
| 20260507113800 | 87 | 137 | 6.0 | 13.0 | 0.00 | 0.00 | 0.00 | 76 | 1006.6 |
| 20260507113256 | 88 | 125 | 9.0 | 14.0 | 0.00 | 0.00 | 0.00 | 76 | 1006.5 |
| 20260507112754 | 87 | 150 | 7.0 | 15.0 | 0.00 | 0.00 | 0.00 | 76 | 1006.7 |
| 20260507112250 | 88 | 82 | 10.0 | 17.0 | 0.00 | 0.00 | 0.00 | 75 | 1006.6 |
| 20260507111748 | 88 | 126 | 6.0 | 15.0 | 0.00 | 0.00 | 0.00 | 74 | 1006.3 |
| 20260507111239 | 88 | 149 | 10.0 | 16.0 | 0.00 | 0.00 | 0.00 | 73 | 1006.2 |
| 20260507110735 | 89 | 108 | 13.0 | 16.0 | 0.00 | 0.00 | 0.00 | 72 | 1006.4 |
| 20260507110232 | 89 | 128 | 3.0 | 4.0 | 0.00 | 0.00 | 0.00 | 71 | 1006.1 |
| 20260507105729 | 89 | 129 | 8.0 | 9.0 | 0.00 | 0.00 | 0.00 | 71 | 1006.0 |
| 20260507105225 | 90 | 141 | 6.0 | 13.0 | 0.00 | 0.00 | 0.00 | 70 | 1005.8 |
| 20260507104722 | 90 | 151 | 4.0 | 13.0 | 0.00 | 0.00 | 0.00 | 69 | 1005.7 |
| 20260507104219 | 91 | 138 | 5.0 | 9.0 | 0.00 | 0.00 | 0.00 | 66 | 1005.8 |
| 20260507103714 | 91 | 98 | 5.0 | 7.0 | 0.00 | 0.00 | 0.00 | 64 | 1005.8 |
| 20260507103211 | 90 | 133 | 8.0 | 15.0 | 0.00 | 0.00 | 0.00 | 64 | 1005.5 |
| 20260507102707 | 91 | 129 | 12.0 | 17.0 | 0.00 | 0.00 | 0.00 | 65 | 1005.7 |
| 20260507102203 | 91 | 132 | 4.0 | 14.0 | 0.00 | 0.00 | 0.00 | 65 | 1005.6 |
| 20260507101700 | 91 | 134 | 5.0 | 11.0 | 0.00 | 0.00 | 0.00 | 65 | 1005.4 |
| 20260507101155 | 91 | 85 | 11.0 | 15.0 | 0.00 | 0.00 | 0.00 | 65 | 1005.2 |
| 20260507100653 | 92 | 143 | 10.0 | 15.0 | 0.00 | 0.00 | 0.00 | 65 | 1005.4 |
| 20260507100152 | 92 | 118 | 4.0 | 10.0 | 0.00 | 0.00 | 0.00 | 65 | 1005.2 |
| 20260507095649 | 92 | 120 | 6.0 | 8.0 | 0.00 | 0.00 | 0.00 | 66 | 1004.9 |
| 20260507095146 | 92 | 120 | 4.0 | 15.0 | 0.00 | 0.00 | 0.00 | 66 | 1005.1 |
| 20260507094642 | 92 | 115 | 10.0 | 14.0 | 0.00 | 0.00 | 0.00 | 66 | 1005.3 |
| 20260507094139 | 92 | 123 | 8.0 | 14.0 | 0.00 | 0.00 | 0.00 | 66 | 1004.9 |
| 20260507093636 | 92 | 104 | 10.0 | 11.0 | 0.00 | 0.00 | 0.00 | 65 | 1005.1 |
| 20260507093135 | 92 | 157 | 4.0 | 14.0 | 0.00 | 0.00 | 0.00 | 65 | 1005.0 |
| 20260507092631 | 92 | 164 | 10.0 | 13.0 | 0.00 | 0.00 | 0.00 | 65 | 1005.0 |
| 20260507092128 | 93 | 175 | 8.0 | 13.0 | 0.00 | 0.00 | 0.00 | 65 | 1005.1 |
| 20260507091624 | 93 | 99 | 9.0 | 11.0 | 0.00 | 0.00 | 0.00 | 65 | 1005.0 |
| 20260507091120 | 93 | 150 | 11.0 | 14.0 | 0.00 | 0.00 | 0.00 | 65 | 1005.2 |
| 20260507090616 | 93 | 169 | 11.0 | 14.0 | 0.00 | 0.00 | 0.00 | 64 | 1005.0 |
| 20260507090114 | 93 | 90 | 4.0 | 10.0 | 0.00 | 0.00 | 0.00 | 64 | 1005.1 |
| 20260507085610 | 93 | 137 | 6.0 | 8.0 | 0.00 | 0.00 | 0.00 | 63 | 1005.1 |
| 20260507085106 | 94 | 131 | 6.0 | 11.0 | 0.00 | 0.00 | 0.00 | 62 | 1005.1 |
| 20260507084603 | 94 | 216 | 6.0 | 8.0 | 0.00 | 0.00 | 0.00 | 62 | 1005.1 |
| 20260507084100 | 94 | 95 | 1.0 | 11.0 | 0.00 | 0.00 | 0.00 | 62 | 1005.2 |
| 20260507083556 | 94 | 163 | 4.0 | 10.0 | 0.00 | 0.00 | 0.00 | 62 | 1005.1 |
| 20260507083054 | 95 | 133 | 7.0 | 11.0 | 0.00 | 0.00 | 0.00 | 61 | 1005.0 |
| 20260507082549 | 95 | 154 | 5.0 | 7.0 | 0.00 | 0.00 | 0.00 | 61 | 1005.2 |
| 20260507082046 | 94 | 124 | 10.0 | 11.0 | 0.00 | 0.00 | 0.00 | 62 | 1005.1 |
| 20260507081542 | 94 | 95 | 6.0 | 8.0 | 0.00 | 0.00 | 0.00 | 61 | 1005.1 |
| 20260507081040 | 94 | 134 | 5.0 | 14.0 | 0.00 | 0.00 | 0.00 | 61 | 1005.3 |
| 20260507080535 | 95 | 53 | 8.0 | 13.0 | 0.00 | 0.00 | 0.00 | 61 | 1005.2 |
| 20260507080032 | 94 | 107 | 5.0 | 13.0 | 0.00 | 0.00 | 0.00 | 61 | 1005.3 |
| 20260507075527 | 94 | 139 | 3.0 | 7.0 | 0.00 | 0.00 | 0.00 | 62 | 1005.4 |
| 20260507075024 | 94 | 98 | 8.0 | 14.0 | 0.00 | 0.00 | 0.00 | 62 | 1005.3 |
| 20260507074520 | 95 | 117 | 4.0 | 11.0 | 0.00 | 0.00 | 0.00 | 61 | 1005.3 |
| 20260507074019 | 94 | 96 | 2.0 | 7.0 | 0.00 | 0.00 | 0.00 | 62 | 1005.3 |
| 20260507073515 | 94 | 121 | 9.0 | 11.0 | 0.00 | 0.00 | 0.00 | 61 | 1005.4 |
| 20260507073012 | 94 | 134 | 9.0 | 11.0 | 0.00 | 0.00 | 0.00 | 61 | 1005.5 |
| 20260507072509 | 95 | 139 | 10.0 | 13.0 | 0.00 | 0.00 | 0.00 | 61 | 1005.6 |
| 20260507072006 | 95 | 147 | 4.0 | 6.0 | 0.00 | 0.00 | 0.00 | 60 | 1005.5 |
| 20260507071504 | 94 | 120 | 4.0 | 10.0 | 0.00 | 0.00 | 0.00 | 61 | 1005.8 |
| 20260507071000 | 94 | 139 | 4.0 | 10.0 | 0.00 | 0.00 | 0.00 | 62 | 1006.0 |
| 20260507070457 | 95 | 110 | 7.0 | 10.0 | 0.00 | 0.00 | 0.00 | 61 | 1005.8 |
| 20260507065954 | 94 | 118 | 5.0 | 9.0 | 0.00 | 0.00 | 0.00 | 61 | 1006.1 |
| 20260507065451 | 94 | 69 | 6.0 | 9.0 | 0.00 | 0.00 | 0.00 | 61 | 1005.9 |
| 20260507064948 | 95 | 157 | 9.0 | 15.0 | 0.00 | 0.00 | 0.00 | 60 | 1006.0 |
| 20260507064446 | 97 | 129 | 7.0 | 9.0 | 0.00 | 0.00 | 0.00 | 58 | 1006.4 |
| 20260507063944 | 97 | 323 | 0.0 | 2.0 | 0.00 | 0.00 | 0.00 | 56 | 1006.3 |
| 20260507063440 | 95 | 218 | 2.0 | 6.0 | 0.00 | 0.00 | 0.00 | 58 | 1006.3 |
| 20260507062937 | 96 | 94 | 9.0 | 13.0 | 0.00 | 0.00 | 0.00 | 58 | 1006.7 |
| 20260507062435 | 95 | 53 | 2.0 | 10.0 | 0.00 | 0.00 | 0.00 | 60 | 1006.8 |
| 20260507061932 | 96 | 132 | 6.0 | 11.0 | 0.00 | 0.00 | 0.00 | 60 | 1006.7 |
| 20260507061430 | 95 | 358 | 2.0 | 4.0 | 0.00 | 0.00 | 0.00 | 59 | 1006.9 |
| 20260507060928 | 95 | 93 | 6.0 | 9.0 | 0.00 | 0.00 | 0.00 | 60 | 1007.2 |
| 20260507060425 | 95 | 160 | 10.0 | 11.0 | 0.00 | 0.00 | 0.00 | 60 | 1007.1 |
| 20260507055921 | 96 | 174 | 3.0 | 11.0 | 0.00 | 0.00 | 0.00 | 60 | 1007.1 |
| 20260507055416 | 94 | 332 | 3.0 | 6.0 | 0.00 | 0.00 | 0.00 | 59 | 1007.3 |
| 20260507054908 | 95 | 56 | 8.0 | 10.0 | 0.00 | 0.00 | 0.00 | 59 | 1007.4 |
| 20260507054404 | 95 | 68 | 8.0 | 10.0 | 0.00 | 0.00 | 0.00 | 58 | 1007.5 |
| 20260507053901 | 95 | 113 | 7.0 | 15.0 | 0.00 | 0.00 | 0.00 | 59 | 1007.8 |
| 20260507053359 | 95 | 50 | 3.0 | 8.0 | 0.00 | 0.00 | 0.00 | 59 | 1007.6 |
| 20260507052858 | 95 | 288 | 4.0 | 10.0 | 0.00 | 0.00 | 0.00 | 59 | 1007.8 |
| 20260507052354 | 94 | 112 | 5.0 | 8.0 | 0.00 | 0.00 | 0.00 | 59 | 1007.9 |
| 20260507051852 | 93 | 27 | 4.0 | 10.0 | 0.00 | 0.00 | 0.00 | 60 | 1008.0 |
| 20260507051349 | 94 | 53 | 7.0 | 13.0 | 0.00 | 0.00 | 0.00 | 60 | 1007.9 |
| 20260507050846 | 94 | 89 | 5.0 | 9.0 | 0.00 | 0.00 | 0.00 | 60 | 1008.0 |
| 20260507050343 | 93 | 164 | 6.0 | 7.0 | 0.00 | 0.00 | 0.00 | 61 | 1008.2 |
| 20260507045839 | 94 | 71 | 10.0 | 10.0 | 0.00 | 0.00 | 0.00 | 61 | 1008.2 |
| 20260507045335 | 94 | 91 | 2.0 | 7.0 | 0.00 | 0.00 | 0.00 | 60 | 1008.2 |
| 20260507044833 | 93 | 11 | 1.0 | 4.0 | 0.00 | 0.00 | 0.00 | 62 | 1008.6 |
| 20260507044329 | 94 | 190 | 2.0 | 7.0 | 0.00 | 0.00 | 0.00 | 61 | 1008.7 |
| 20260507043825 | 94 | 73 | 1.0 | 8.0 | 0.00 | 0.00 | 0.00 | 62 | 1008.6 |
| 20260507043322 | 93 | 85 | 7.0 | 9.0 | 0.00 | 0.00 | 0.00 | 62 | 1008.7 |
| 20260507042819 | 94 | 14 | 5.0 | 9.0 | 0.00 | 0.00 | 0.00 | 62 | 1008.8 |
| 20260507042314 | 93 | 83 | 4.0 | 6.0 | 0.00 | 0.00 | 0.00 | 64 | 1008.7 |
| 20260507041811 | 92 | 122 | 10.0 | 11.0 | 0.00 | 0.00 | 0.00 | 64 | 1008.7 |
| 20260507041308 | 92 | 64 | 5.0 | 11.0 | 0.00 | 0.00 | 0.00 | 66 | 1008.8 |
| 20260507040805 | 92 | 79 | 6.0 | 8.0 | 0.00 | 0.00 | 0.00 | 65 | 1008.7 |
| 20260507040301 | 92 | 122 | 1.0 | 10.0 | 0.00 | 0.00 | 0.00 | 65 | 1008.9 |
| 20260507035757 | 92 | 122 | 6.0 | 13.0 | 0.00 | 0.00 | 0.00 | 66 | 1008.9 |
| 20260507035252 | 92 | 54 | 5.0 | 13.0 | 0.00 | 0.00 | 0.00 | 67 | 1009.0 |
| 20260507034750 | 93 | 158 | 4.0 | 10.0 | 0.00 | 0.00 | 0.00 | 66 | 1009.0 |
| 20260507034247 | 92 | 70 | 6.0 | 8.0 | 0.00 | 0.00 | 0.00 | 66 | 1009.1 |
| 20260507033746 | 91 | 20 | 3.0 | 7.0 | 0.00 | 0.00 | 0.00 | 68 | 1009.2 |
| 20260507033243 | 91 | 119 | 9.0 | 10.0 | 0.00 | 0.00 | 0.00 | 69 | 1009.4 |
| 20260507032740 | 91 | 51 | 5.0 | 10.0 | 0.00 | 0.00 | 0.00 | 69 | 1009.3 |
| 20260507032236 | 91 | 79 | 7.0 | 15.0 | 0.00 | 0.00 | 0.00 | 68 | 1009.5 |
| 20260507031732 | 91 | 61 | 7.0 | 11.0 | 0.00 | 0.00 | 0.00 | 68 | 1009.7 |
| 20260507031230 | 91 | 109 | 4.0 | 10.0 | 0.00 | 0.00 | 0.00 | 69 | 1009.9 |
| 20260507030726 | 90 | 40 | 6.0 | 9.0 | 0.00 | 0.00 | 0.00 | 72 | 1009.8 |
| 20260507030224 | 90 | 52 | 5.0 | 10.0 | 0.00 | 0.00 | 0.00 | 71 | 1009.7 |